Tracking 35334 objects as of 12-Sep-2026
HD Live streaming from Space Station
objects crossing your sky now

SL-16 DEB

Track SL-16 DEB now!
10-day predictions


NORAD ID: 31794
Int'l Code: 2007-029C
Launch date: June 29, 2007
Source: Commonwealth of Independent States (former USSR) (CIS)
Launch site: TYURATAM MISSILE AND SPACE COMPLEX (TTMTR)

Note: This is SATELLITE DEBRIS
Your satellite tracking list
Your tracking list is empty




NASA's NSSDC Master Catalog

Two Line Element Set (TLE):
1 31794U 07029C   26255.33147053  .00000051  00000-0  89051-4 0  9991
2 31794  71.0423 127.3098 0204819 184.8482 294.5738 13.71801308961299
Source of the keplerian elements: AFSPC